Weather History for KNEW - May, 2013

Change the Weather History Date:

Thursday, May 16, 2013

  Actual Average Record
Temperature  
Mean Temperature 74 °F 77 °F  
Max Temperature 83 °F 85 °F 90 °F (2003)
Min Temperature 65 °F 68 °F 46 °F (1973)
Degree Days  
Heating Degree Days 0 0  
Month to date heating degree days 16 0  
Since 1 July heating degree days 1146 1279  
Cooling Degree Days 9 12  
Month to date cooling degree days 77 160  
Year to date cooling degree days 281 417  
Growing Degree Days 26 (Base 50)    
Moisture  
Dew Point 65 °F    
Average Humidity 71    
Maximum Humidity 87    
Minimum Humidity 54    
Precipitation  
Precipitation T in 0.13 in 4.49 in (1980)
Month to date precipitation 5.12 2.23  
Year to date precipitation 31.62 21.84  
Snow  
Snow 0.00 in - - ()
Month to date snowfall 0.0  
Since 1 July snowfall 0.0  
Snow Depth 0.00 in    
Sea Level Pressure  
Sea Level Pressure 29.98 in    
Wind  
Wind Speed 9 mph (South)    
Max Wind Speed 20 mph    
Max Gust Speed 25 mph    
Visibility 10 miles    
Events      
T = Trace of Precipitation, MM = Missing Value Source: NWS Daily Summary

Daily Weather History Graph

Daily Weather History Graph

Search for Another Location

Airport or City:

Trip Planner

Search our weather history database for the weather conditions in past years. The results will help you decide how hot, cold, wet, or windy it might be!

Date:

Astronomy

May. 16, 2013 Rise Set
Actual Time 6:05 AM CDT 7:47 PM CDT
Civil Twilight 5:39 AM CDT 8:13 PM CDT
Nautical Twilight 5:08 AM CDT 8:45 PM CDT
Astronomical Twilight 4:34 AM CDT 9:18 PM CDT
Moon 11:31 AM CDT (5/16) 12:14 AM CDT (5/16)
Length of Visible Light 14h 34m
Length of Day
13h 41m
Waxing Crescent, 36% of the Moon is Illuminated
May 16
Waxing Crescent
May 17
First Quarter
May 24
Full
May 31
Last Quarter
Jun 8
New

Hourly Weather History & Observations

Time (CDT) Temp. Heat Index Dew Point Humidity Pressure Visibility Wind Dir Wind Speed Gust Speed Precip Events Conditions
12:53 AM 71.1 °F - 63.0 °F 75% 30.02 in 10.0 mi SSE 6.9 mph - N/A   Clear
1:53 AM 71.1 °F - 64.0 °F 78% 30.01 in 10.0 mi South 4.6 mph - N/A   Scattered Clouds
2:53 AM 71.1 °F - 63.0 °F 75% 30.00 in 10.0 mi Calm Calm - N/A   Clear
3:53 AM 70.0 °F - 64.0 °F 81% 29.99 in 10.0 mi SE 5.8 mph - N/A   Clear
4:53 AM 70.0 °F - 64.9 °F 84% 29.99 in 10.0 mi SE 5.8 mph - N/A   Clear
5:53 AM 69.1 °F - 66.0 °F 90% 30.00 in 10.0 mi SE 5.8 mph - N/A   Partly Cloudy
6:53 AM 70.0 °F - 66.9 °F 90% 30.01 in 7.0 mi SE 5.8 mph - N/A   Clear
7:53 AM 73.9 °F - 66.9 °F 79% 30.01 in 10.0 mi South 9.2 mph - N/A   Scattered Clouds
8:53 AM 75.9 °F - 64.0 °F 67% 30.01 in 10.0 mi South 13.8 mph - N/A   Clear
9:53 AM 78.8 °F - 64.4 °F 61% 30.05 in 10.0 mi SSW 10.4 mph - N/A   Mostly Cloudy
10:53 AM 78.1 °F - 64.0 °F 62% 30.04 in 10.0 mi SW 11.5 mph - N/A   Mostly Cloudy
11:53 AM 81.0 °F 82.2 °F 63.0 °F 54% 30.00 in 10.0 mi SSW 11.5 mph - N/A   Partly Cloudy
12:53 PM 82.0 °F 83.4 °F 64.0 °F 54% 29.99 in 10.0 mi SSW 11.5 mph - N/A   Scattered Clouds
1:53 PM 84.0 °F 84.9 °F 63.0 °F 49% 29.97 in 10.0 mi South 17.3 mph 23.0 mph N/A   Scattered Clouds
2:53 PM 84.0 °F 84.9 °F 63.0 °F 49% 29.97 in 10.0 mi South 12.7 mph - N/A   Partly Cloudy
3:53 PM 82.9 °F 84.0 °F 63.0 °F 51% 29.95 in 10.0 mi South 15.0 mph - N/A   Scattered Clouds
4:53 PM 82.4 °F 83.9 °F 64.4 °F 54% 29.95 in 10.0 mi South 13.8 mph - N/A   Partly Cloudy
5:53 PM 82.0 °F 83.1 °F 63.0 °F 52% 29.92 in 10.0 mi South 16.1 mph - N/A   Partly Cloudy
6:53 PM 80.1 °F 81.9 °F 64.9 °F 60% 29.93 in 10.0 mi South 16.1 mph - N/A   Clear
7:53 PM 78.1 °F - 66.9 °F 68% 29.92 in 10.0 mi South 12.7 mph - N/A   Clear
8:53 PM 77.0 °F - 69.1 °F 76% 29.94 in 10.0 mi SSE 15.0 mph - N/A   Clear
9:53 PM 75.9 °F - 70.0 °F 82% 29.96 in 10.0 mi SSE 12.7 mph - N/A   Clear
10:53 PM 75.9 °F - 70.0 °F 82% 29.96 in 10.0 mi SSE 12.7 mph - N/A   Partly Cloudy
11:53 PM 75.9 °F - 70.0 °F 82% 29.96 in 10.0 mi SSE 9.2 mph - N/A   Scattered Clouds